Temp
51 51 51 51 51 51 52 52 52 53 53 54 53 52 52 52 52 60 67 68 66 60 65 69 71 69 68 66 53 61 57 57 51 38 40 44 39 46 47 53 42 38 36 34 38 33 32 60 58 44 52 55 55 54
49 49 50 50 50 51 51 51 51 52 52 53 53 52 52 52 52 54 70 70 69 66 63 68 67 69 68 69 67 63 62 59 57 49 46 46 38 38 41 42 60 45 49 45 45 43 57 61 56 58 54 54 51 51
48 48 49 50 50 49 49 50 50 51 51 51 52 52 52 53 53 54 69 69 71 60 63 64 64 68 73 70 73 59 61 67 63 65 49 43 34 46 35 43 48 58 62 48 49 56 58 59 60 56 57 55 55 55
48 48 48 48 49 50 49 49 49 50 51 51 51 51 53 53 53 53 69 69 69 57 39 58 69 66 70 72 73 72 68 66 64 58 41 38 36 56 43 49 49 55 58 53 51 57 59 59 55 56 54 55 54 55
48 47 48 48 48 49 49 49 49 49 49 49 50 50 50 54 53 60 70 69 69 63 46 56 65 67 69 70 69 69 66 62 57 45 37 39 51 51 50 47 46 56 53 47 44 56 54 53 54 55 53 53 55 55
48 47 47 47 48 48 48 48 48 48 48 48 49 50 50 51 51 66 62 68 69 69 51 43 62 62 65 67 67 66 65 64 61 51 43 53 60 52 38 39 54 60 63 61 56 58 55 54 56 56 55 56 56 54
47 47 47 47 47 47 48 48 48 48 48 48 49 50 49 50 62 59 57 57 54 65 50 43 49 58 61 64 63 63 64 62 60 55 48 48 52 54 38 38 54 60 61 61 59 56 52 53 51 56 56 56 54 56
47 47 47 47 47 47 47 48 48 48 48 49 49 49 50 50 52 58 60 56 56 63 55 44 42 47 58 50 47 55 49 51 53 53 49 46 53 47 40 51 56 59 60 57 55 55 55 57 56 56 56 56 53 52
48 48 47 47 47 47 47 48 48 48 49 49 49 49 56 55 55 59 50 52 64 59 49 37 37 37 56 44 44 45 49 39 51 40 43 46 41 38 47 53 56 59 55 54 55 56 56 54 54 54 53 52 50 49
48 47 47 47 47 47 47 47 48 48 48 48 50 47 39 45 49 51 57 54 51 54 51 39 51 41 51 41 39 39 39 38 36 39 41 35 38 51 56 58 58 55 56 56 50 47 51 49 50 50 50 50 49 46
48 47 47 47 47 47 48 47 48 48 49 46 40 37 44 48 51 47 40 41 42 39 43 43 46 41 49 39 36 40 35 36 34 38 37 35 35 46 53 55 55 55 56 56 56 54 53 51 49 48 46 44 41 41
48 48 47 47 47 48 47 48 48 49 45 44 44 46 44 41 37 37 35 35 36 39 39 36 40 45 41 49 40 35 34 33 32 40 33 33 45 53 52 51 53 55 54 53 54 52 51 50 49 45 42 41 40 37
47 48 48 47 47 48 47 47 47 47 47 44 39 35 36 33 31 32 31 33 33 34 35 35 34 36 37 39 34 33 32 32 36 33 33 40 47 51 51 51 52 51 46 47 51 51 49 47 44 39 37 38 35 37
47 47 48 47 47 47 47 47 47 50 45 36 33 32 32 32 33 33 33 33 34 34 34 35 33 34 33 33 33 32 33 34 31 30 32 40 47 50 51 50 50 45 36 40 41 43 40 38 37 35 33 33 32 34
47 47 48 47 46 46 46 47 47 51 46 36 35 31 32 33 34 33 33 34 34 36 35 34 34 35 33 32 33 32 29 29 31 32 35 40 42 44 42 45 42 39 34 36 42 39 34 34 35 36 36 36 37 33
47 46 49 47 46 47 46 47 48 47 44 40 36 33 34 33 33 33 33 33 37 35 37 37 33 32 32 33 30 30 30 29 33 37 40 41 40 41 41 42 42 42 40 40 40 40 38 35 33 37 38 35 34 33
45 47 47 46 45 45 47 46 44 40 37 34 33 37 35 35 34 34 35 36 40 35 33 34 32 29 33 31 30 33 31 34 37 40 40 40 40 41 43 42 36 38 39 40 40 40 40 38 35 35 35 38 38 37
48 47 46 46 49 47 43 45 41 40 35 39 35 35 36 36 34 35 36 39 38 37 37 33 36 31 30 29 32 36 38 40 40 39 40 42 43 42 44 42 44 42 41 40 38 39 38 35 36 37 39 40 39 38
45 48 46 46 49 45 38 37 40 35 36 38 36 38 37 35 36 37 36 37 39 39 37 35 31 32 34 37 36 37 38 39 39 41 42 42 42 41 40 40 39 40 40 40 40 40 41 40 40 42 42 41 39 39
45 45 45 45 47 41 35 38 44 38 35 38 38 37 35 34 34 33 34 35 36 36 33 33 35 38 39 41 42 41 42 42 42 39 40 42 43 42 40 40 41 41 41 40 40 37 41 41 43 42 42 41 37 36
44 42 42 42 40 44 42 40 38 40 40 37 37 39 33 34 33 33 34 36 33 33 34 40 40 42 43 43 43 43 42 42 41 40 39 39 42 41 41 42 42 42 41 40 38 39 37 38 40 41 36 34 34 34
40 42 36 37 34 35 38 41 39 41 37 35 35 37 31 31 31 32 35 33 34 39 42 43 44 45 43 41 43 43 43 42 42 41 37 38 38 40 40 42 41 39 39 38 39 37 37 40 39 38 35 34 34 34
40 37 34 33 32 32 30 39 34 37 31 31 35 31 30 31 33 36 31 36 38 44 46 46 46 44 43 44 43 43 43 42 42 42 41 42 43 42 41 41 41 37 37 39 41 39 38 36 36 34 33 33 33 33
38 32 32 31 32 29 33 31 37 35 35 32 31 29 31 32 34 31 30 36 41 44 42 42 43 42 42 41 42 43 42 44 42 42 43 41 40 40 42 41 41 40 40 40 39 36 35 33 33 34 33 32 32 32
31 29 30 27 31 30 29 29 30 31 29 30 29 29 29 32 29 29 29 36 34 32 34 38 41 42 41 40 42 41 40 38 36 35 38 39 37 37 36 38 38 39 38 35 33 33 33 33 33 33 32 32 31 31
26 29 28 29 29 29 29 27 29 29 30 28 29 30 31 30 27 27 33 31 30 31 31 32 33 35 37 37 35 33 31 33 31 29 33 32 31 29 28 29 29 32 29 30 30 30 31 32 32 32 31 31 31 30
26 27 31 35 34 33 29 31 33 31 28 27 29 27 27 24 26 31 32 29 29 30 33 32 31 31 31 31 31 31 30 29 28 27 31 33 32 28 26 24 23 26 29 29 29 29 28 29 30 30 30 31 31 30
31 32 26 30 31 35 29 29 28 28 30 36 32 26 26 28 27 27 26 29 29 31 32 31 30 29 29 28 29 28 27 27 28 29 31 31 31 28 26 26 26 26 26 26 26 27 27 28 28 28 28 27 28 29
29 33 32 26 29 30 31 31 31 36 39 36 31 30 30 25 24 25 25 26 28 27 25 25 25 27 27 28 28 26 25 22 19 16 16 18 19 20 23 23 23 22 23 23 24 26 26 26 27 27 27 27 26 25
28 32 30 28 26 29 31 33 32 32 37 35 36 33 27 22 21 25 25 24 22 21 23 23 23 22 21 20 20 22 23 21 19 16 13 13 14 18 19 19 18 19 20 20 21 22 25 25 26 26 24 21 20 20
31 31 30 30 29 30 30 30 31 31 31 33 32 31 22 19 20 21 21 22 22 21 21 20 20 21 19 18 17 16 16 20 19 18 17 17 16 16 16 15 16 17 17 18 18 20 20 20 21 21 18 16 15 15
31 29 29 28 28 30 31 30 30 29 31 29 30 26 24 23 18 17 19 20 20 17 16 17 16 16 18 19 20 20 18 18 18 17 16 15 14 14 14 13 14 14 13 13 16 18 17 17 16 14 14 12 10 10
29 29 28 28 28 28 30 29 30 29 29 29 26 24 20 20 14 17 21 21 18 16 15 16 17 18 19 18 17 19 17 18 17 17 17 15 13 12 11 12 13 10 9 9 15 15 13 12 10 10 8 7 5 4
MSLP
1009.47 1010.18 1010.84 1011.42 1012.09 1012.72 1013.15 1013.41 1013.67 1013.85 1013.94 1014.03 1014.10 1014.07 1013.95 1013.72 1013.37 1013.09 1012.84 1012.65 1012.49 1012.42 1012.56 1012.21 1011.98 1011.89 1012.20 1012.68 1013.75 1014.69 1015.76 1016.28 1017.21 1018.63 1019.59 1019.70 1019.88 1019.08 1018.75 1018.31 1019.13 1019.94 1020.84 1021.32 1021.30 1020.86 1019.41 1018.19 1018.15 1018.98 1019.14 1019.52 1020.04 1020.49
1010.38 1010.64 1011.34 1011.86 1012.35 1012.86 1013.20 1013.43 1013.72 1013.99 1014.14 1014.28 1014.37 1014.37 1014.29 1014.03 1013.62 1013.32 1012.55 1012.68 1012.50 1012.37 1013.33 1013.29 1013.42 1013.43 1013.30 1013.18 1013.04 1014.42 1014.74 1015.51 1016.53 1017.84 1019.39 1020.03 1020.34 1019.93 1019.33 1018.49 1017.42 1017.94 1018.18 1018.67 1019.07 1018.44 1017.83 1017.56 1018.18 1018.75 1019.39 1019.98 1020.54 1021.14
1011.46 1011.32 1011.79 1012.25 1012.68 1012.99 1013.32 1013.60 1013.90 1014.15 1014.31 1014.42 1014.56 1014.61 1014.55 1014.33 1014.02 1013.86 1013.02 1012.97 1012.44 1013.08 1013.76 1013.77 1013.84 1013.89 1013.63 1013.64 1013.47 1014.16 1014.78 1014.78 1015.71 1016.48 1019.24 1020.41 1020.67 1020.03 1019.76 1018.54 1017.44 1016.81 1016.79 1017.13 1017.47 1017.20 1017.18 1017.43 1017.86 1018.72 1019.56 1020.07 1020.43 1020.88
1012.32 1012.37 1012.47 1012.71 1013.02 1013.33 1013.55 1013.76 1014.02 1014.27 1014.47 1014.55 1014.74 1014.85 1014.79 1014.64 1014.29 1014.16 1013.26 1013.37 1013.02 1013.83 1014.34 1014.29 1014.23 1014.09 1014.35 1013.98 1013.79 1013.91 1014.18 1015.06 1015.92 1017.49 1019.32 1019.97 1019.81 1018.85 1018.91 1018.13 1017.31 1016.80 1016.55 1016.48 1016.53 1016.63 1016.81 1017.42 1018.52 1019.06 1019.65 1020.04 1020.48 1020.69
1012.93 1012.97 1012.98 1013.15 1013.40 1013.57 1013.69 1013.99 1014.26 1014.43 1014.62 1014.81 1014.95 1015.06 1015.06 1014.90 1014.59 1014.06 1013.45 1013.54 1013.52 1013.78 1014.36 1014.53 1014.40 1014.48 1014.44 1014.31 1014.32 1014.50 1014.82 1015.49 1016.63 1018.30 1019.37 1019.22 1018.63 1018.26 1018.12 1018.33 1017.27 1016.47 1016.10 1016.29 1016.11 1016.50 1017.26 1018.04 1018.89 1019.28 1019.66 1020.01 1020.26 1020.48
1013.73 1013.63 1013.57 1013.62 1013.73 1013.84 1013.99 1014.13 1014.38 1014.59 1014.79 1015.01 1015.23 1015.35 1015.31 1015.15 1014.86 1013.94 1013.66 1013.85 1013.89 1013.87 1014.67 1015.15 1015.10 1014.87 1014.86 1014.81 1014.77 1014.97 1015.25 1015.68 1016.33 1017.62 1018.58 1018.16 1017.39 1017.82 1018.23 1017.73 1016.38 1015.82 1015.60 1015.82 1016.23 1017.01 1017.83 1018.62 1018.99 1019.30 1019.65 1019.83 1020.26 1020.74
1014.14 1014.05 1014.12 1014.23 1014.08 1014.16 1014.24 1014.26 1014.37 1014.62 1014.84 1015.13 1015.40 1015.59 1015.60 1015.30 1014.84 1014.91 1015.22 1015.52 1015.18 1014.59 1015.03 1015.83 1015.75 1015.84 1015.75 1015.40 1015.50 1015.70 1015.81 1016.10 1016.69 1017.30 1017.93 1018.26 1017.62 1017.72 1017.82 1017.07 1016.09 1015.57 1015.55 1015.85 1016.78 1017.54 1018.18 1018.73 1019.02 1019.32 1019.69 1020.13 1020.56 1020.73
1014.54 1014.49 1014.65 1014.82 1014.69 1014.57 1014.54 1014.43 1014.39 1014.61 1014.85 1015.24 1015.48 1015.66 1015.75 1015.48 1015.45 1015.59 1015.63 1015.31 1015.17 1014.65 1015.37 1016.22 1016.80 1017.00 1016.54 1016.45 1017.15 1017.43 1017.37 1017.62 1017.64 1017.63 1018.25 1018.31 1017.69 1017.60 1016.77 1015.79 1015.46 1015.24 1015.21 1015.97 1017.12 1017.96 1018.38 1018.52 1019.03 1019.41 1019.91 1020.24 1020.74 1021.09
1015.05 1015.27 1015.29 1015.13 1014.93 1014.77 1014.69 1014.71 1014.68 1014.73 1015.02 1015.45 1015.64 1015.82 1015.80 1015.86 1015.69 1015.30 1015.54 1015.43 1014.96 1015.35 1015.61 1016.61 1016.88 1017.01 1016.90 1017.91 1018.51 1018.87 1018.76 1019.00 1018.79 1018.68 1018.71 1018.42 1017.80 1016.78 1015.49 1015.26 1014.90 1014.70 1015.28 1016.28 1017.30 1017.85 1018.29 1018.89 1019.30 1019.75 1020.20 1020.73 1021.25 1021.59
1015.54 1015.54 1015.44 1015.39 1015.28 1015.10 1014.93 1014.89 1014.81 1014.88 1015.11 1015.52 1015.81 1016.23 1016.48 1016.45 1016.30 1015.92 1015.71 1015.67 1015.69 1015.51 1015.99 1016.76 1016.61 1016.92 1017.08 1018.58 1019.15 1019.87 1019.95 1019.67 1019.47 1019.46 1019.47 1018.61 1016.71 1015.76 1015.26 1014.92 1014.92 1015.15 1015.95 1016.70 1017.42 1018.00 1018.70 1019.48 1019.99 1020.52 1021.00 1021.44 1021.86 1022.37
1015.76 1015.70 1015.76 1015.61 1015.46 1015.35 1015.10 1014.94 1014.87 1015.10 1015.39 1015.69 1016.17 1016.70 1017.02 1016.78 1016.56 1016.47 1016.57 1016.79 1016.68 1016.52 1016.36 1016.56 1016.78 1017.21 1017.77 1018.45 1019.43 1019.98 1020.16 1020.11 1019.98 1019.50 1019.42 1018.07 1016.34 1015.31 1014.91 1015.26 1015.90 1016.10 1016.52 1017.02 1017.68 1018.54 1019.48 1020.22 1020.80 1021.27 1021.72 1022.22 1022.67 1022.99
1016.02 1016.04 1016.05 1015.91 1015.85 1015.73 1015.51 1015.45 1015.56 1015.54 1015.97 1016.26 1016.45 1016.89 1017.19 1017.15 1017.28 1017.06 1017.06 1017.25 1016.94 1016.56 1016.74 1016.95 1017.12 1017.36 1018.31 1018.47 1019.23 1020.48 1020.38 1020.50 1019.60 1019.47 1019.19 1017.15 1015.47 1014.67 1015.04 1016.07 1016.70 1016.99 1017.53 1018.34 1019.10 1019.84 1020.56 1021.09 1021.55 1022.03 1022.41 1022.70 1023.02 1023.23
1016.78 1016.71 1016.52 1016.45 1016.24 1016.19 1016.24 1016.15 1016.00 1016.20 1016.28 1016.68 1017.08 1017.65 1017.93 1018.49 1018.12 1017.55 1017.61 1017.44 1017.32 1017.31 1017.52 1017.71 1018.08 1018.52 1019.20 1019.33 1019.74 1020.15 1020.13 1019.86 1019.61 1019.09 1018.16 1016.77 1016.03 1015.85 1016.19 1016.97 1017.68 1018.41 1019.16 1019.63 1020.15 1020.76 1021.36 1021.83 1022.24 1022.67 1022.89 1022.94 1023.06 1023.16
1016.83 1016.83 1016.78 1016.60 1016.57 1016.75 1016.78 1016.86 1016.55 1016.21 1016.73 1017.94 1018.48 1018.68 1018.73 1018.75 1018.76 1018.56 1018.76 1018.67 1018.48 1018.14 1018.14 1018.26 1018.71 1019.02 1019.39 1019.53 1019.76 1019.85 1019.90 1019.64 1019.28 1018.65 1017.79 1017.25 1016.72 1016.71 1017.28 1017.96 1018.69 1019.91 1020.73 1020.97 1021.28 1021.53 1021.87 1022.24 1022.51 1022.82 1023.04 1023.00 1023.11 1023.00
1017.30 1017.16 1017.14 1017.20 1017.28 1017.39 1017.42 1017.19 1017.01 1016.67 1017.13 1018.05 1018.56 1018.88 1019.04 1019.31 1019.32 1019.25 1019.27 1019.30 1019.07 1018.70 1018.80 1018.82 1018.93 1019.12 1019.46 1019.69 1019.63 1019.69 1019.80 1019.11 1018.61 1018.38 1018.39 1018.18 1018.05 1018.35 1018.78 1019.27 1020.00 1020.68 1021.21 1021.43 1021.51 1021.74 1021.95 1022.20 1022.41 1022.52 1022.55 1022.55 1022.51 1022.48
1017.53 1017.49 1017.43 1017.66 1017.64 1017.59 1017.65 1017.56 1017.44 1017.67 1017.76 1018.25 1018.86 1019.11 1019.27 1019.31 1019.48 1019.52 1019.58 1019.61 1019.43 1019.17 1018.97 1019.07 1019.16 1019.22 1019.44 1019.39 1019.35 1019.09 1018.99 1018.71 1018.72 1018.88 1018.99 1019.06 1019.28 1019.55 1019.84 1020.14 1020.49 1020.81 1021.13 1021.41 1021.60 1021.73 1021.80 1021.88 1022.02 1022.05 1021.96 1022.02 1021.96 1021.98
1017.67 1017.46 1017.72 1017.87 1017.93 1017.80 1017.84 1018.04 1018.13 1018.43 1018.62 1018.62 1018.96 1019.07 1019.35 1019.38 1019.68 1019.84 1019.78 1019.73 1019.55 1019.45 1019.55 1019.44 1019.29 1019.69 1019.75 1019.38 1019.14 1019.08 1019.06 1019.20 1019.38 1019.45 1019.49 1019.62 1019.85 1020.11 1020.32 1020.49 1020.73 1020.94 1021.15 1021.31 1021.42 1021.46 1021.45 1021.37 1021.46 1021.72 1021.57 1021.07 1020.92 1020.79
1017.77 1017.70 1017.92 1018.11 1017.86 1018.09 1018.66 1018.61 1018.71 1018.62 1018.57 1018.54 1018.81 1019.29 1019.57 1019.76 1019.90 1020.03 1019.96 1020.00 1019.93 1019.80 1019.60 1019.57 1019.50 1019.46 1019.29 1019.13 1018.91 1018.93 1019.04 1019.21 1019.33 1019.56 1019.81 1019.96 1020.06 1020.29 1020.51 1020.72 1020.81 1020.83 1020.88 1020.96 1021.07 1021.11 1021.04 1021.04 1021.02 1020.80 1020.50 1020.18 1019.91 1019.87
1018.31 1017.98 1018.17 1018.40 1018.14 1018.36 1018.97 1019.29 1019.11 1018.79 1018.87 1018.92 1019.38 1019.56 1019.85 1020.26 1020.47 1020.43 1020.57 1020.56 1020.26 1019.86 1019.61 1019.53 1019.48 1019.09 1018.82 1018.77 1018.85 1019.03 1019.11 1019.26 1019.58 1019.86 1019.92 1020.01 1020.12 1020.23 1020.47 1020.70 1020.85 1020.81 1020.71 1020.60 1020.56 1020.52 1020.38 1020.20 1020.17 1020.01 1019.78 1019.62 1019.54 1019.42
1018.52 1018.56 1018.61 1018.65 1018.53 1018.71 1019.07 1019.09 1019.05 1018.87 1018.78 1019.01 1019.50 1019.79 1020.33 1020.63 1020.90 1020.85 1020.77 1020.77 1020.42 1020.02 1019.76 1019.42 1018.94 1018.84 1018.91 1018.89 1018.90 1019.06 1019.05 1019.38 1019.67 1019.96 1020.11 1020.09 1019.98 1019.93 1020.09 1020.24 1020.31 1020.38 1020.28 1020.07 1019.97 1019.88 1019.79 1019.59 1019.36 1019.22 1019.09 1019.02 1019.16 1019.27
1018.64 1019.02 1019.10 1019.06 1018.98 1018.47 1018.48 1018.50 1018.68 1018.65 1018.75 1019.03 1019.62 1019.67 1020.64 1020.88 1020.97 1020.97 1020.96 1020.83 1020.49 1019.97 1019.40 1018.78 1018.68 1018.95 1019.07 1019.23 1019.37 1019.33 1019.41 1019.64 1019.79 1019.97 1020.16 1020.14 1020.02 1019.98 1020.01 1020.01 1019.98 1020.01 1019.95 1019.78 1019.76 1019.66 1019.60 1019.36 1019.00 1018.78 1018.74 1018.97 1019.11 1019.25
1019.09 1019.17 1019.59 1019.79 1019.61 1019.34 1018.91 1018.90 1018.55 1018.72 1019.05 1019.55 1019.84 1019.87 1020.57 1020.85 1021.05 1021.18 1021.22 1020.85 1020.11 1019.19 1018.69 1018.53 1018.54 1018.57 1018.82 1019.10 1019.27 1019.45 1019.61 1019.78 1019.88 1020.04 1020.29 1020.08 1019.95 1019.83 1019.72 1019.66 1019.67 1019.60 1019.54 1019.46 1019.41 1019.27 1019.06 1018.69 1018.56 1018.56 1018.66 1018.67 1018.80 1018.85
1019.39 1019.66 1019.85 1019.84 1019.59 1019.39 1019.56 1019.20 1018.90 1018.84 1019.17 1019.66 1019.85 1020.15 1020.58 1020.91 1021.10 1021.47 1020.94 1020.28 1019.53 1018.88 1018.67 1018.51 1018.59 1018.90 1019.20 1019.28 1019.50 1019.76 1019.77 1019.95 1020.05 1019.98 1019.98 1019.90 1019.84 1019.66 1019.64 1019.58 1019.53 1019.45 1019.24 1018.99 1018.84 1018.62 1018.54 1018.51 1018.65 1018.62 1018.57 1018.50 1018.44 1018.38
1019.72 1020.11 1019.44 1019.25 1019.25 1019.25 1019.34 1019.04 1018.71 1018.82 1019.03 1019.32 1019.64 1019.95 1020.31 1020.76 1021.27 1021.02 1020.41 1019.76 1019.25 1019.13 1019.40 1019.44 1019.43 1019.36 1019.56 1019.75 1019.71 1019.69 1020.04 1020.21 1020.35 1020.17 1020.06 1020.08 1019.90 1019.64 1019.47 1019.25 1019.08 1018.94 1018.84 1018.51 1018.44 1018.38 1018.48 1018.45 1018.41 1018.30 1018.22 1018.11 1018.06 1017.94
1019.89 1020.04 1019.38 1019.00 1019.02 1018.88 1018.53 1018.66 1018.65 1018.67 1018.82 1019.19 1019.57 1019.95 1020.51 1021.00 1020.83 1020.59 1020.33 1019.91 1020.54 1020.88 1020.94 1020.60 1020.06 1019.94 1019.96 1020.22 1020.34 1020.68 1021.09 1021.48 1021.58 1021.39 1021.05 1020.85 1020.56 1020.25 1020.06 1019.88 1019.62 1019.38 1019.10 1018.99 1018.61 1018.25 1018.12 1018.10 1018.08 1017.96 1017.88 1017.81 1017.73 1017.63
1018.56 1018.92 1018.75 1018.35 1018.29 1018.04 1017.97 1018.15 1018.26 1018.30 1018.56 1019.04 1019.58 1020.33 1020.68 1020.61 1020.65 1020.35 1020.42 1021.41 1021.84 1022.33 1022.41 1022.28 1021.91 1021.56 1021.44 1021.87 1022.04 1022.40 1022.86 1023.05 1023.03 1022.64 1022.18 1022.27 1022.16 1021.79 1021.23 1020.80 1020.28 1020.07 1020.64 1020.27 1019.61 1018.89 1018.52 1018.19 1017.83 1017.61 1017.49 1017.52 1017.44 1017.31
1018.00 1018.23 1018.33 1018.34 1017.84 1017.83 1018.13 1018.33 1018.29 1018.26 1018.39 1018.64 1019.32 1020.22 1020.58 1020.78 1020.76 1021.02 1022.17 1023.19 1023.32 1023.72 1023.67 1023.67 1023.61 1023.45 1023.47 1023.46 1023.71 1023.96 1024.08 1024.17 1024.13 1023.80 1023.17 1022.61 1022.41 1022.68 1022.59 1022.40 1022.04 1021.96 1021.46 1020.85 1020.31 1019.80 1019.21 1018.59 1018.09 1017.77 1017.56 1017.34 1017.27 1017.23
1017.89 1017.91 1017.99 1018.21 1017.93 1017.82 1017.92 1018.10 1018.24 1018.07 1018.07 1018.25 1019.22 1019.91 1020.46 1021.00 1022.12 1023.18 1024.02 1024.52 1024.65 1024.54 1024.42 1024.56 1024.68 1024.79 1024.62 1024.70 1024.63 1024.65 1024.83 1024.92 1024.48 1023.88 1023.20 1022.97 1022.82 1023.26 1023.48 1023.38 1023.06 1022.64 1022.07 1021.60 1021.09 1020.49 1019.86 1019.19 1018.62 1018.16 1017.93 1017.71 1017.50 1017.36
1018.12 1018.25 1018.39 1018.45 1018.26 1018.29 1018.26 1018.20 1018.19 1018.04 1017.97 1018.49 1019.13 1019.88 1021.26 1023.05 1024.36 1024.77 1025.39 1025.63 1025.52 1025.44 1025.37 1025.39 1025.49 1025.53 1025.42 1025.38 1025.32 1025.48 1025.69 1025.82 1025.60 1025.15 1024.76 1024.32 1024.09 1024.19 1024.42 1024.03 1023.63 1023.24 1022.73 1022.17 1021.48 1020.89 1020.27 1019.48 1018.83 1018.50 1018.22 1018.01 1018.08 1018.20
1018.73 1018.64 1018.39 1018.55 1018.55 1018.50 1018.93 1018.95 1019.09 1019.35 1018.96 1019.42 1019.60 1020.76 1022.48 1024.58 1026.02 1026.40 1026.38 1026.39 1026.38 1026.42 1026.44 1026.43 1026.47 1026.49 1026.47 1026.46 1026.36 1026.38 1026.39 1026.61 1026.82 1026.79 1026.40 1026.08 1025.97 1025.70 1025.21 1024.81 1024.51 1023.94 1023.37 1022.74 1021.98 1021.17 1020.35 1019.84 1019.08 1018.62 1018.76 1019.02 1019.21 1019.20
1019.17 1018.96 1018.82 1018.84 1018.93 1019.46 1019.86 1020.13 1020.11 1020.08 1020.00 1019.98 1020.38 1021.10 1023.08 1025.10 1026.61 1027.38 1027.39 1027.26 1027.24 1027.39 1027.34 1027.34 1027.31 1027.34 1027.46 1027.35 1027.30 1027.17 1027.04 1027.19 1027.34 1027.35 1027.39 1027.09 1026.83 1026.49 1026.12 1025.73 1025.32 1024.56 1023.94 1023.23 1022.51 1021.61 1020.98 1020.49 1019.95 1019.69 1019.85 1020.15 1020.43 1020.61
1019.43 1019.41 1019.31 1019.25 1019.46 1020.17 1020.30 1020.25 1020.14 1020.10 1019.98 1020.39 1020.71 1022.04 1023.30 1024.30 1025.92 1027.49 1028.41 1028.09 1027.93 1028.11 1028.45 1028.42 1028.35 1028.26 1028.31 1028.18 1027.83 1027.77 1027.85 1027.73 1027.59 1027.50 1027.40 1027.25 1027.15 1026.93 1026.56 1026.18 1025.52 1025.01 1024.54 1023.84 1022.82 1021.99 1021.62 1021.32 1021.03 1021.11 1021.10 1021.41 1021.73 1022.03
1020.09 1020.14 1020.18 1020.04 1019.97 1020.01 1020.30 1020.30 1019.89 1019.90 1020.23 1020.52 1021.54 1022.65 1024.16 1025.08 1026.48 1027.87 1028.63 1028.81 1028.87 1029.04 1029.18 1029.25 1029.15 1028.83 1028.52 1028.39 1028.40 1028.02 1028.01 1027.95 1027.87 1027.60 1027.43 1027.38 1027.28 1027.15 1026.81 1026.23 1025.71 1025.47 1024.97 1024.28 1023.06 1022.51 1022.44 1022.37 1022.36 1022.39 1022.57 1022.77 1023.06 1023.35
Wind_Speed
14 16 13 12 11 10 9 8 6 5 5 6 7 8 9 11 11 6 3 3 3 3 3 5 1 8 5 7 5 8 5 1 3 3 3 3 2 4 1 4 7 8 7 4 4 4 7 2 2 2 6 8 3 4
15 14 12 11 10 8 7 7 6 4 3 4 6 7 9 10 12 7 1 0 3 2 4 6 6 6 6 8 5 8 3 7 5 3 2 1 2 2 3 3 7 5 7 5 9 6 8 1 5 7 3 5 4 5
16 17 14 11 8 8 5 4 4 4 3 2 4 6 8 9 11 7 4 3 0 2 3 3 3 3 4 6 3 4 1 4 6 3 5 3 3 5 5 5 3 4 8 3 4 8 9 6 4 11 5 1 4 3
15 15 15 13 9 5 4 3 2 3 3 2 2 5 7 8 10 8 3 3 1 4 5 3 2 2 2 1 1 3 5 6 6 5 4 4 4 8 5 7 4 5 4 6 7 11 10 3 7 6 5 4 2 4
15 14 14 14 12 7 3 4 3 4 4 2 1 3 6 9 10 6 2 3 3 3 4 1 1 3 2 3 5 5 7 7 3 3 3 4 3 1 3 1 4 5 9 7 8 4 3 4 4 1 2 2 4 3
14 15 14 13 13 11 7 2 4 4 5 5 2 1 4 8 8 4 3 2 5 4 4 2 2 3 3 4 6 6 6 4 4 5 4 4 7 3 3 3 8 11 7 6 7 4 4 3 4 1 3 4 4 4
13 14 14 13 13 12 11 7 2 4 6 6 4 2 4 6 4 3 2 2 7 4 3 2 2 2 4 5 2 3 0 1 2 2 3 3 2 3 4 6 7 8 9 6 5 5 4 2 2 5 4 1 4 4
13 14 13 12 12 12 11 10 5 4 5 6 5 2 2 2 3 2 2 3 4 1 2 3 2 1 4 1 2 3 2 2 1 1 2 2 2 2 5 9 10 12 11 8 6 2 4 1 6 4 4 1 5 7
11 12 11 11 12 12 10 8 8 2 7 8 7 4 1 2 3 1 2 6 1 2 2 3 6 5 5 3 3 2 1 1 1 1 2 2 3 8 7 8 9 10 6 8 6 6 6 3 2 2 2 4 7 8
9 10 11 11 11 11 10 10 6 1 8 12 3 2 1 2 3 1 2 1 2 2 2 3 3 3 5 1 2 3 2 2 2 2 2 2 6 10 11 5 4 9 7 6 7 6 4 3 1 3 5 6 7 8
9 10 10 11 11 11 10 10 7 11 8 2 2 1 1 4 1 1 2 2 2 3 3 4 6 5 3 4 3 0 3 2 3 3 4 4 4 8 13 7 4 5 6 6 7 7 7 3 2 4 4 5 3 4
8 9 10 12 12 12 12 7 4 3 2 4 3 3 2 3 2 4 5 1 4 5 3 4 2 4 2 1 3 3 3 2 5 6 2 4 3 6 10 10 7 7 10 10 8 7 5 3 4 4 3 4 4 3
8 7 9 10 10 9 11 12 12 11 4 3 5 4 3 2 2 3 4 3 3 1 1 1 3 3 2 2 3 3 6 5 1 3 3 2 7 7 10 9 9 12 11 7 6 5 6 5 5 2 5 5 4 6
8 7 8 11 9 5 7 9 9 4 5 4 2 3 2 2 2 2 2 3 2 1 2 3 3 2 2 2 3 4 1 2 3 4 3 4 5 8 8 7 9 10 7 5 3 2 3 2 4 4 5 6 5 7
6 5 4 9 11 9 8 8 9 3 2 3 0 2 2 1 1 1 1 1 3 1 2 2 3 2 2 3 0 3 4 3 2 1 3 4 7 9 7 7 8 6 4 2 2 3 3 4 5 5 5 5 7 6
5 5 3 9 8 7 4 4 4 4 2 2 2 2 1 0 2 2 2 1 0 1 0 2 2 1 3 2 2 1 2 0 3 3 3 5 6 6 4 4 4 2 3 2 3 4 5 4 5 7 6 5 6 8
5 2 5 9 9 11 9 3 2 3 2 1 2 1 1 2 2 0 1 1 2 2 2 1 2 4 1 0 1 2 2 2 3 1 4 5 5 3 1 1 3 2 3 5 5 6 6 5 3 4 9 10 8 8
2 5 9 8 6 4 2 3 1 1 1 2 3 3 1 3 1 1 1 1 0 1 1 2 3 1 1 1 2 3 2 2 2 2 3 3 2 2 3 5 5 4 4 5 4 5 5 5 8 8 10 10 6 5
9 5 6 3 2 3 2 2 2 1 2 2 2 2 2 2 2 3 2 2 2 1 2 1 1 2 1 2 1 1 3 2 2 2 1 2 4 3 2 4 5 5 6 7 7 6 6 6 7 8 8 6 6 6
7 7 5 2 5 2 1 2 2 0 1 3 2 2 2 2 2 1 1 1 1 1 1 1 2 2 1 1 1 3 2 1 2 2 3 3 3 3 5 5 4 5 5 6 6 6 6 6 6 6 7 7 5 4
4 3 7 4 3 2 1 3 2 1 3 2 2 2 2 1 1 0 1 1 1 1 2 4 1 1 1 2 2 2 2 0 2 2 3 4 2 3 4 5 5 4 5 5 4 6 6 7 8 7 4 5 4 5
2 6 3 3 1 3 1 0 1 2 2 2 2 2 2 2 2 1 1 1 2 4 3 2 3 2 3 4 3 2 1 2 3 3 5 4 4 4 4 4 4 4 5 5 6 7 7 7 6 6 4 3 3 5
6 3 1 1 2 3 3 2 2 4 4 4 2 3 2 2 1 2 2 3 4 3 3 3 1 4 2 3 2 2 2 3 4 3 3 4 4 4 4 6 6 6 7 8 7 7 7 5 5 4 3 4 5 6
6 1 3 3 2 3 3 3 2 3 3 4 4 3 4 2 2 2 3 2 1 2 1 1 1 2 4 2 3 2 5 4 4 4 4 5 6 7 7 7 7 6 8 8 7 5 4 5 6 6 6 6 6 7
3 3 4 4 2 4 4 6 4 3 4 4 4 3 3 3 3 3 3 3 6 6 6 7 3 1 2 3 3 5 10 8 7 8 7 8 8 8 8 8 8 8 8 10 9 7 7 6 7 6 6 6 7 9
3 3 2 3 3 3 4 5 5 5 4 4 3 3 3 3 3 4 2 4 6 5 5 6 6 5 5 7 7 7 8 8 8 8 8 9 9 9 10 11 9 6 9 9 9 11 10 9 8 8 6 7 9 7
3 3 2 2 1 4 4 2 3 3 4 4 4 6 4 3 4 4 5 6 4 4 4 4 5 6 6 6 7 6 5 6 7 8 9 9 5 8 8 8 9 8 9 10 10 10 11 10 9 8 7 7 5 6
2 2 4 2 2 1 4 4 3 3 3 3 6 5 3 3 3 3 4 5 4 4 3 4 6 6 5 6 5 5 6 7 8 7 7 3 4 7 10 8 8 14 10 10 11 10 10 10 9 8 8 7 6 5
3 2 2 3 2 2 1 2 2 2 2 3 4 3 4 4 4 4 4 4 4 4 5 5 6 5 5 6 5 5 5 6 10 12 12 8 8 8 10 9 9 9 9 10 14 13 14 11 9 7 8 4 6 7
3 4 2 2 1 2 3 5 3 3 3 3 2 4 5 4 4 4 4 4 5 5 5 4 5 6 6 6 6 7 5 6 6 7 8 8 9 10 10 10 11 10 10 10 11 12 12 10 10 4 6 6 6 5
1 1 2 2 2 3 3 2 1 1 1 1 2 3 4 5 4 5 5 4 4 5 5 5 5 5 6 6 6 7 6 5 7 7 7 7 8 9 10 10 10 10 10 11 10 10 8 8 7 6 7 8 8 8
2 4 3 1 3 3 1 1 1 1 1 2 2 4 5 4 4 3 3 5 4 4 5 6 6 6 7 6 5 4 4 6 7 7 10 7 8 10 10 9 9 8 10 11 10 8 8 9 6 7 7 9 9 9
1 2 2 2 1 1 2 3 2 1 2 1 3 4 4 5 4 3 3 3 3 4 4 5 6 7 8 5 7 7 6 7 11 9 10 8 9 10 9 8 8 8 11 10 10 6 7 8 7 8 8 8 8 8
Wind_Direction
127 134 137 138 141 147 148 139 132 109 69 41 26 19 12 2 6 356 87 26 337 60 72 14 17 185 156 184 141 143 124 141 79 90 152 194 145 222 175 189 163 168 164 197 196 227 255 349 37 251 353 335 11 351
61 94 114 121 129 134 137 144 145 135 94 42 20 15 6 2 355 357 141 40 319 21 73 16 35 18 7 4 140 161 185 148 162 121 162 130 181 3 27 219 205 209 188 187 186 211 220 159 216 271 275 261 48 298
56 65 76 99 112 110 120 143 159 161 148 66 17 10 359 358 352 359 5 3 292 73 117 179 129 39 44 12 359 134 320 191 160 78 139 166 178 171 181 231 285 259 270 211 207 253 274 300 315 106 138 32 10 320
62 58 64 65 74 112 137 142 173 185 184 149 41 12 355 349 346 342 342 14 321 67 113 128 170 147 348 308 138 352 136 59 95 108 123 151 171 202 195 258 255 225 271 275 282 284 287 54 70 88 23 298 253 261
61 54 55 58 55 57 135 186 189 188 185 162 74 9 351 346 343 314 12 38 17 315 166 123 228 119 179 204 165 128 131 141 120 110 125 204 218 305 99 75 238 238 258 246 257 283 287 89 101 81 279 289 258 268
62 57 50 50 48 46 41 198 203 174 168 168 172 310 337 340 346 266 180 108 24 331 96 129 89 176 172 214 197 181 176 197 183 144 196 255 178 187 152 241 241 242 270 302 315 101 96 117 316 354 250 39 32 18
56 53 47 39 41 38 33 31 200 173 172 179 180 269 325 327 327 344 21 6 325 307 96 51 190 45 332 193 179 225 217 254 244 214 178 218 245 198 150 222 237 247 245 248 77 129 196 195 217 173 116 68 182 275
52 46 42 37 35 32 27 24 31 192 177 171 148 120 348 27 128 230 110 284 318 56 54 145 150 248 218 106 106 331 45 12 265 296 95 201 230 275 248 240 247 249 251 124 135 178 261 180 185 137 173 355 345 328
53 49 41 29 23 18 18 22 18 179 179 156 133 140 68 326 197 131 196 299 325 315 218 123 157 198 159 57 56 51 32 156 338 235 199 217 164 219 225 243 257 251 145 155 174 227 152 157 103 54 10 342 331 336
54 50 35 26 16 11 24 9 358 127 152 136 113 122 261 242 323 354 87 168 347 209 153 175 192 165 145 127 82 113 22 241 231 217 121 237 251 253 250 278 292 124 152 166 189 163 136 107 341 3 343 341 337 357
54 50 35 25 15 21 20 13 91 107 110 77 107 117 297 343 193 3 144 178 184 241 199 185 178 148 188 137 150 204 171 174 237 170 215 233 251 226 222 194 126 140 178 167 127 110 85 83 10 340 347 25 358 311
47 45 41 32 24 37 31 89 158 48 48 80 104 94 35 48 41 177 179 182 198 218 124 141 121 98 89 147 124 186 166 149 237 138 201 250 234 81 122 129 160 138 113 102 105 107 81 26 1 21 334 307 299 326
31 38 48 46 32 57 49 52 75 112 119 43 36 51 29 17 184 215 193 220 212 111 153 145 74 97 119 73 89 151 186 210 36 185 234 298 97 127 133 135 134 85 68 73 101 67 29 352 360 320 286 283 273 278
14 23 40 58 54 64 63 40 39 59 62 62 64 94 341 132 54 30 320 338 337 23 86 98 91 114 112 100 130 178 126 178 210 223 206 156 119 111 109 109 125 108 87 75 42 337 318 265 251 249 257 262 263 273
9 353 66 79 87 68 61 44 21 351 82 79 19 69 68 70 29 336 309 353 338 19 33 41 62 86 107 121 192 123 177 214 230 157 71 49 66 88 79 89 97 125 137 193 355 332 274 269 259 273 262 255 255 263
357 333 92 109 103 86 42 2 28 10 25 90 79 135 83 62 28 9 6 37 51 271 220 43 74 82 74 64 176 185 200 214 87 64 81 75 74 90 120 130 143 111 69 347 310 291 281 259 255 266 278 279 267 258
307 62 110 117 99 71 46 46 350 61 101 75 100 38 103 88 99 116 252 45 3 37 49 345 32 51 165 86 68 31 27 73 134 140 61 94 110 133 114 323 157 208 258 273 273 268 268 275 287 283 279 279 259 247
277 129 143 174 186 111 40 11 78 234 137 132 165 162 67 9 113 47 92 139 134 89 227 81 169 99 16 329 185 142 128 111 91 102 123 117 86 26 341 316 300 286 286 289 270 275 271 260 264 262 259 261 258 270
36 27 157 143 359 80 82 23 330 106 38 117 47 108 73 80 48 34 36 353 8 338 99 49 66 234 221 77 76 84 81 102 147 177 191 168 212 216 251 285 285 277 271 267 266 264 265 268 279 284 284 285 280 288
65 45 133 128 316 115 101 124 183 290 177 105 87 123 49 49 38 3 14 343 358 49 82 185 255 32 6 97 106 157 149 165 62 311 294 289 290 205 208 227 252 274 282 277 270 261 267 272 270 271 270 275 285 292
99 106 51 43 337 341 144 168 117 75 127 108 101 151 87 127 104 83 84 29 12 237 229 224 148 186 159 46 17 21 18 21 279 292 292 292 312 349 324 303 287 277 271 279 286 285 279 275 282 292 296 285 287 293
80 90 74 24 86 338 86 203 81 113 70 94 191 146 127 162 141 132 60 242 256 231 232 252 271 272 186 182 202 212 304 357 315 288 272 254 263 267 266 276 294 282 287 272 279 279 280 288 297 300 296 224 244 266
85 53 95 155 148 181 114 281 140 163 138 158 189 130 163 158 126 184 234 237 244 276 288 285 10 59 319 357 41 313 263 259 280 299 319 306 294 280 273 274 274 274 280 280 278 284 288 326 332 293 270 278 277 280
80 345 222 146 184 130 159 143 178 115 128 172 177 177 136 149 172 211 239 227 304 63 27 286 244 229 168 197 241 82 48 1 331 328 343 321 296 288 288 290 293 291 290 294 304 296 294 291 278 279 277 276 278 284
173 193 229 139 194 178 136 137 165 160 144 178 158 154 139 178 202 211 225 138 56 35 15 360 320 45 35 59 33 37 46 23 1 337 330 330 332 329 327 328 324 330 330 318 297 287 283 271 281 282 281 277 295 296
156 158 256 138 163 182 142 137 170 167 137 159 153 89 183 199 214 226 125 73 74 58 32 18 4 7 24 30 10 15 2 6 345 317 320 349 326 311 306 306 313 334 9 346 337 335 319 302 289 281 282 296 288 289
147 146 139 296 104 100 100 63 86 126 156 163 152 172 171 204 221 93 104 31 54 33 8 35 12 14 360 355 5 357 5 3 336 313 302 298 348 39 25 6 354 351 334 340 341 339 330 328 325 319 308 294 304 298
77 152 143 169 113 40 113 128 152 162 156 150 147 187 199 218 57 58 55 36 17 347 16 43 45 14 360 4 344 11 18 351 332 338 324 112 68 46 17 358 351 345 341 340 333 326 324 326 320 324 333 330 320 58
69 71 97 83 93 89 110 120 145 130 84 155 190 187 118 67 30 45 45 9 8 14 31 16 23 360 25 6 21 55 36 19 2 2 358 343 347 353 352 343 347 340 338 332 326 324 321 320 320 315 302 357 30 71
58 322 69 66 58 88 56 13 53 20 352 25 51 118 109 98 58 32 38 41 36 31 20 26 40 23 16 11 3 2 55 54 32 5 344 339 333 330 332 341 337 328 329 324 324 321 324 336 313 11 43 48 28 33
56 31 71 46 59 62 49 2 241 214 281 31 49 47 94 121 121 50 29 21 47 43 25 22 12 31 12 360 357 343 336 10 0 1 353 330 329 327 331 331 322 319 324 322 320 316 336 330 352 19 58 54 41 41
24 29 347 32 86 87 1 337 345 266 201 227 152 111 144 157 100 86 23 351 42 39 32 11 4 353 348 324 330 338 338 325 333 350 338 334 336 328 327 322 315 329 325 316 309 327 349 351 23 31 37 51 44 39
34 26 24 348 287 6 51 322 267 281 196 237 83 68 49 17 76 95 101 44 40 36 10 357 337 326 315 8 336 326 358 345 333 323 334 346 342 340 324 319 320 329 323 314 311 351 13 19 29 36 45 46 49 42